Tracking 29892 objects as of 21-Nov-2024
HD Live streaming from Space Station
objects crossing your sky now

TIANMU-1 22

Track TIANMU-1 22 now!
10-day predictions


NORAD ID: 58663
Int'l Code: 2023-208D
Perigee: 512.2 km
Apogee: 518.6 km
Inclination: 97.4 °
Period: 94.8 minutes
Semi major axis: 6886 km
RCS: Unknown
Launch date: December 27, 2023
Source: People's Republic of China (PRC)
Launch site: Jiuquan Satellite Launch Center, China (JSC)
Your satellite tracking list
Your tracking list is empty




NASA's NSSDC Master Catalog

Two Line Element Set (TLE):
1 58663U 23208D   24326.11595478  .00011686  00000-0  55799-3 0  9990
2 58663  97.4193  75.1225 0004673 189.8937 170.2207 15.19191456 49969
Source of the keplerian elements: AFSPC